Location: Rio Negrinho
(26.2394°S, 49.4999°W)
Time: 19:50:21
(UTC+00:00)

Envisat - Pass Details

Date: 29 July 2021
Orbit: 764 x 766 km, 98.2° (Epoch: 17 September)

Event Time Altitude Azimuth Distance (km) Brightness Sun altitude
Rises 08:34:30 0° 351° (N) 3,213 6.3 -19.0°
Reaches altitude 10° 08:37:00 10° 341° (NNW) 2,295 5.4 -18.4°
Maximum altitude 08:41:29 32° 278° (W) 1,292 3.7 -17.5°
Enters shadow 08:42:36 29° 253° (WSW) 1,377 3.7 -17.2°
